Location: Warner Observatory
(35.1353°N, 89.5455°W)
Time: 21:03:55
(UTC-05:00)

Amateur Radio Satellites - All Passes

Search period start: 30 March 2015 20:33
Search period end: 31 March 2015 20:33
Location: Warner Observatory, 35.1353°N, 89.5455°W

Satellite Date Start Highest point End Downlink Frequencies (MHz)
Time Altitude Azimuth
COMPASS 1 30 Mar 20:38:47 20:42:18 27° 72° (ENE) 20:45:53 437.405
AIST 2 30 Mar 20:39:57 20:44:08 62° 244° (WSW) 20:48:13 435.215
DANDE 30 Mar 20:41:33 20:43:54 19° 97° (E) 20:46:03 436.750
Oscar 11 30 Mar 20:47:48 20:49:59 14° 68° (ENE) 20:52:23 145.826/435.025
BEESAT 2 30 Mar 21:00:17 21:01:46 11° 251° (WSW) 21:02:59 435.950
STRAND 1 30 Mar 21:01:20 21:05:24 24° 291° (WNW) 21:09:20 437.568
UWE-3 30 Mar 21:09:14 21:11:27 15° 69° (ENE) 21:13:51 435.000/436.395/437.385
ISS 30 Mar 21:10:54 21:12:58 16° 129° (SE) 21:15:08 145.825
CANX-2 30 Mar 21:12:35 21:16:47 67° 259° (W) 21:21:02 2200.000
CINEMA 3 30 Mar 21:13:11 21:17:06 39° 74° (ENE) 21:21:00 145.822/145.860
ZACube-1 30 Mar 21:14:52 21:16:49 14° 68° (ENE) 21:18:59 437.345
CUBEBUG 2 30 Mar 21:16:18 21:19:27 22° 71° (ENE) 21:22:42 437.445
DELFI C3 30 Mar 21:16:59 21:20:05 22° 71° (ENE) 21:23:19 145.870
BRITE-PL 30 Mar 21:23:19 21:27:32 30° 263° (W) 21:31:27 437.365/2234.400
CUSAT 1 30 Mar 21:25:39 21:28:25 38° 280° (W) 21:30:53 437.405
CUTE 1.7 + AOD 2 30 Mar 21:26:25 21:30:32 49° 261° (W) 21:34:41 437.475
GONETS M04 30 Mar 21:33:36 21:40:10 22° 293° (WNW) 21:46:20
HO-68 30 Mar 21:40:55 21:47:45 46° 261° (W) 21:54:36 435.675
DOVE 4 30 Mar 21:44:21 21:48:28 39° 262° (W) 21:52:25 437.250
AAUSAT CUBESAT 2 30 Mar 21:45:22 21:49:25 51° 261° (W) 21:53:31 437.432
UKube-1 30 Mar 21:53:07 21:56:51 30° 72° (ENE) 22:00:40 .
HUMSAT D 30 Mar 21:53:20 21:56:07 18° 70° (ENE) 21:59:02 437.325/437.525
SEEDS 30 Mar 21:54:04 21:57:43 28° 264° (W) 22:01:21 437.485
GOMX 1 30 Mar 22:04:04 22:07:00 16° 267° (W) 22:09:40 467.674
DX 1 30 Mar 22:04:53 22:09:00 43° 73° (ENE) 22:13:10 434.975-435.025
COMPASS 1 30 Mar 22:14:53 22:18:01 20° 267° (W) 22:21:04 437.405
Oscar 11 30 Mar 22:21:44 22:25:51 43° 262° (W) 22:29:58 145.826/435.025
50 SAT 30 Mar 22:22:04 22:25:15 25° 72° (ENE) 22:28:32 437.505
RS-15 30 Mar 22:35:06 22:41:53 17° 336° (NNW) 22:48:24 29.354- 29.394
FUNcube-1 30 Mar 22:35:17 22:39:22 62° 260° (W) 22:43:29 145.935
UWE-3 30 Mar 22:43:53 22:47:44 37° 262° (W) 22:51:35 435.000/436.395/437.385
ISS 30 Mar 22:46:07 22:49:11 37° 323° (NW) 22:52:15 145.825
CUBEBUG 1 30 Mar 22:47:16 22:50:42 23° 71° (ENE) 22:54:14 437.445
ZACube-1 30 Mar 22:48:59 22:52:54 40° 262° (W) 22:56:49 437.345
POLYITAN 1 30 Mar 22:50:36 22:51:19 10° 90° (E) 22:52:20 437.675
VELOX 1 30 Mar 22:50:40 22:55:02 60° 75° (ENE) 22:59:26 145.980
DELFI C3 30 Mar 22:51:52 22:55:11 23° 265° (W) 22:58:27 145.870
CINEMA 3 30 Mar 22:52:29 22:54:34 13° 269° (W) 22:56:24 145.822/145.860
CUBEBUG 2 30 Mar 22:52:42 22:56:06 24° 265° (W) 22:59:26 437.445
AISAT 30 Mar 22:55:58 23:00:24 72° 76° (ENE) 23:04:49 437.250
UNISAT 6 30 Mar 23:04:05 23:08:19 36° 97° (E) 23:12:39 437.425
TIGRISAT 30 Mar 23:13:28 23:17:53 44° 99° (E) 23:22:22 435.000
QB50P1 30 Mar 23:24:25 23:28:03 28° 96° (E) 23:31:44 145.935-145.965
DUCHIFAT 1 30 Mar 23:25:22 23:28:59 28° 96° (E) 23:32:39 145.980
HUMSAT D 30 Mar 23:28:10 23:31:43 28° 264° (W) 23:35:16 437.325/437.525
UKube-1 30 Mar 23:29:50 23:33:03 20° 266° (W) 23:36:10 .
ESTCUBE 1 30 Mar 23:30:30 23:35:03 85° 77° (ENE) 23:39:37 437.505/2401.250
YUBILEINY 30 Mar 23:36:01 23:41:09 17° 64° (ENE) 23:46:50 435.215
QB50P2 30 Mar 23:39:28 23:43:32 44° 99° (E) 23:47:36 145.880/145.840
DX 1 30 Mar 23:43:15 23:45:31 13° 268° (W) 23:47:34 434.975-435.025
ANTELSAT 30 Mar 23:44:27 23:49:05 78° 283° (WNW) 23:53:46 437.575/2403.000
50 SAT 30 Mar 23:57:21 00:00:11 18° 266° (W) 00:02:55 437.505
PCSat 30 Mar 23:58:22 00:03:41 54° 60° (ENE) 00:08:59 145.827
BUGSAT 1 30 Mar 23:58:50 00:02:45 50° 100° (E) 00:06:40 437.445
POPSAT HIP 1 31 Mar 00:07:45 00:12:00 84° 280° (W) 00:16:14 437.405
TISAT 1 31 Mar 00:09:32 00:13:28 40° 74° (ENE) 00:17:26 437.305
NANOSAT C BR1 31 Mar 00:17:45 00:21:57 63° 284° (WNW) 00:26:06 145.865
CUBEBUG 1 31 Mar 00:23:14 00:26:59 26° 264° (W) 00:30:40 437.445
POLYITAN 1 31 Mar 00:23:29 00:27:37 52° 285° (WNW) 00:31:46 437.675
SPROUT 31 Mar 00:25:22 00:29:39 77° 77° (ENE) 00:33:56 437.525
UNISAT 6 31 Mar 00:41:33 00:44:53 19° 291° (WNW) 00:48:08 437.425
TIGRISAT 31 Mar 00:51:29 00:54:19 16° 292° (WNW) 00:57:01 435.000
ITUPSAT 1 31 Mar 00:53:50 00:57:13 20° 68° (ENE) 01:00:46 437.325
RS-15 31 Mar 00:56:09 01:00:58 13° 13° (NNE) 01:06:12 29.354- 29.394
QB50P1 31 Mar 01:00:37 01:03:48 20° 290° (WNW) 01:06:50 145.935-145.965
DUCHIFAT 1 31 Mar 01:01:32 01:04:41 20° 290° (WNW) 01:07:42 145.980
QB50P2 31 Mar 01:16:56 01:19:06 13° 292° (WNW) 01:21:05 145.880/145.840
YUBILEINY 31 Mar 01:30:27 01:39:19 85° 265° (W) 01:48:03 435.215
BUGSAT 1 31 Mar 01:36:52 01:37:52 11° 293° (WNW) 01:38:37 437.445
SWISSCUBE 31 Mar 01:39:23 01:44:09 69° 75° (ENE) 01:48:57 437.505
BEESAT 31 Mar 01:42:04 01:46:49 67° 75° (ENE) 01:51:36 436.000
PCSat 31 Mar 01:43:12 01:46:43 17° 254° (WSW) 01:49:58 145.827
TISAT 1 31 Mar 01:47:16 01:49:30 14° 268° (W) 01:51:31 437.305
Oscar 19 31 Mar 01:58:06 02:02:55 39° 98° (E) 02:07:47 437.125/150
Gurwin Techsat 1B 31 Mar 02:27:41 02:31:11 18° 92° (E) 02:34:54 435.225
ITUPSAT 1 31 Mar 02:30:25 02:34:53 37° 262° (W) 02:39:20 437.325
O/OREOS (USA 219) 31 Mar 02:56:51 02:59:33 16° 101° (E) 03:02:29 437.305
KKS-1 31 Mar 03:00:14 03:04:39 85° 77° (ENE) 03:09:06 437.445
ITAMSAT 1 31 Mar 03:07:09 03:12:16 57° 101° (E) 03:17:21 435.822/435.867
RS-15 31 Mar 03:07:59 03:18:16 37° 45° (NE) 03:29:10 29.354- 29.394
SO-50 31 Mar 03:14:44 03:19:02 29° 52° (NE) 03:23:22 436.795
BEESAT 31 Mar 03:24:28 03:25:13 10° 271° (W) 03:25:36 436.000
STARS 31 Mar 03:28:13 03:32:35 74° 258° (WSW) 03:36:58 437.465
YUBILEINY 31 Mar 03:30:55 03:35:01 13° 280° (W) 03:38:23 435.215
HORYU 2 31 Mar 03:32:57 03:35:39 16° 92° (E) 03:38:33 437.375
Oscar 19 31 Mar 03:38:06 03:42:03 22° 292° (WNW) 03:45:52 437.125/150
AO-7 31 Mar 03:46:49 03:52:22 20° 92° (E) 03:58:23 29.400- 29.500
JAS-2 31 Mar 03:58:49 04:04:11 22° 88° (E) 04:09:30 435.910
PHONESAT 2.4 31 Mar 04:00:48 04:01:59 11° 142° (SE) 04:03:17 2401.200-2431.200
Gurwin Techsat 1B 31 Mar 04:06:22 04:11:28 46° 287° (WNW) 04:16:29 435.225
AIST 1 31 Mar 04:15:40 04:20:03 78° 96° (E) 04:24:28
O/OREOS (USA 219) 31 Mar 04:34:21 04:38:42 40° 295° (WNW) 04:43:01 437.305
VERMONT LUNAR 31 Mar 04:41:00 04:44:18 61° 153° (SSE) 04:47:36 437.305
MOZHAYETS 4 31 Mar 04:47:42 04:52:14 64° 76° (ENE) 04:56:51
ITAMSAT 1 31 Mar 04:48:18 04:51:21 15° 294° (WNW) 04:54:08 435.822/435.867
AUBIESAT-1 31 Mar 04:54:40 04:58:13 31° 66° (ENE) 05:02:06 437.475
SO-50 31 Mar 04:55:14 04:59:35 30° 247° (WSW) 05:03:47 436.795
HORYU 2 31 Mar 05:08:18 05:12:31 39° 287° (WNW) 05:16:41 437.375
ISS 31 Mar 05:15:58 05:19:08 51° 40° (NE) 05:22:17 145.825
RS-15 31 Mar 05:20:03 05:31:30 65° 246° (WSW) 05:43:20 29.354- 29.394
M-CUBED/EXP-1 PRIME 31 Mar 05:20:13 05:24:10 73° 72° (ENE) 05:28:31 437.505
PHONESAT 2.4 31 Mar 05:36:26 05:39:56 67° 154° (SSE) 05:43:26 2401.200-2431.200
AO-7 31 Mar 05:37:42 05:45:58 73° 289° (WNW) 05:54:13 29.400- 29.500
JAS-2 31 Mar 05:42:19 05:49:54 64° 287° (WNW) 05:56:45 435.910
GONETS M04 31 Mar 05:48:44 05:56:01 29° 71° (ENE) 06:03:34
VERMONT LUNAR 31 Mar 06:18:56 06:22:06 38° 349° (N) 06:25:16 437.305
AUBIESAT-1 31 Mar 06:30:17 06:33:10 18° 264° (W) 06:36:06 437.475
STRAND 1 31 Mar 06:34:29 06:39:09 37° 71° (ENE) 06:43:52 437.568
CUBESAT XI-V 31 Mar 06:39:51 06:44:33 77° 76° (ENE) 06:49:16 437.345
PRISM 31 Mar 06:41:25 06:45:35 65° 76° (ENE) 06:49:48 437.425
ISS 31 Mar 06:54:05 06:55:13 11° 232° (SW) 06:56:14 145.825
PHONESAT 2.4 31 Mar 07:15:05 07:18:24 38° 350° (N) 07:21:45 2401.200-2431.200
CUTE-I 31 Mar 07:21:10 07:26:31 85° 101° (E) 07:31:50 437.470
DANDE 31 Mar 07:21:48 07:25:10 21° 78° (ENE) 07:29:28 436.750
Cubesat XI-IV 31 Mar 07:21:56 07:27:18 88° 103° (ESE) 07:32:37 437.490
JAS-2 31 Mar 07:31:40 07:33:32 11° 304° (NW) 07:34:49 435.910
AO-7 31 Mar 07:33:30 07:37:34 14° 306° (NW) 07:41:08 29.400- 29.500
RS-15 31 Mar 07:39:57 07:42:28 10° 260° (W) 07:43:27 29.354- 29.394
GONETS M04 31 Mar 07:44:47 07:53:20 54° 269° (W) 08:01:47
VERMONT LUNAR 31 Mar 07:57:09 08:00:13 32° 6° (N) 08:03:18 437.305
CUSAT 1 31 Mar 08:02:11 08:06:54 75° 82° (E) 08:13:15 437.405
STRAND 1 31 Mar 08:14:25 08:18:28 22° 266° (W) 08:22:22 437.568
GOMX 1 31 Mar 08:30:34 08:32:25 13° 92° (E) 08:34:35 467.674
PHONESAT 2.4 31 Mar 08:53:54 08:57:11 35° 7° (N) 09:00:29 2401.200-2431.200
CANX-2 31 Mar 09:01:38 09:05:15 26° 95° (E) 09:08:55 2200.000
DANDE 31 Mar 09:04:13 09:08:22 34° 263° (W) 09:13:41 436.750
CUTE-I 31 Mar 09:04:40 09:05:58 11° 297° (WNW) 09:06:55 437.470
Cubesat XI-IV 31 Mar 09:05:46 09:06:46 10° 297° (WNW) 09:07:22 437.490
HO-68 31 Mar 09:11:54 09:18:37 42° 98° (E) 09:25:22 435.675
BEESAT 2 31 Mar 09:12:00 09:15:02 21° 112° (ESE) 09:18:12 435.950
CINEMA 3 31 Mar 09:12:18 09:14:18 13° 91° (E) 09:16:35 145.822/145.860
CUTE 1.7 + AOD 2 31 Mar 09:15:01 09:18:57 34° 97° (E) 09:22:53 437.475
BRITE-PL 31 Mar 09:30:06 09:34:21 78° 283° (WNW) 09:38:51 437.365/2234.400
AAUSAT CUBESAT 2 31 Mar 09:31:56 09:35:40 30° 96° (E) 09:39:26 437.432
VERMONT LUNAR 31 Mar 09:34:48 09:38:09 85° 19° (NNE) 09:41:31 437.305
SEEDS 31 Mar 09:41:02 09:45:17 59° 100° (E) 09:49:30 437.485
BEESAT 3 31 Mar 09:45:33 09:49:34 64° 117° (ESE) 09:53:39 437.485
DOVE 4 31 Mar 09:45:34 09:49:56 65° 101° (E) 09:54:36 437.250
CUSAT 1 31 Mar 09:48:38 09:49:48 10° 266° (W) 09:50:33 437.405
COMPASS 1 31 Mar 10:00:21 10:04:38 83° 102° (ESE) 10:08:52 437.405
UNISAT 6 31 Mar 10:01:03 10:04:11 21° 70° (ENE) 10:07:28 437.425
GOMX 1 31 Mar 10:06:39 10:10:50 46° 285° (WNW) 10:15:13 467.674
TIGRISAT 31 Mar 10:09:58 10:13:25 25° 71° (ENE) 10:17:00 435.000
Oscar 11 31 Mar 10:12:10 10:16:18 41° 98° (E) 10:20:27 145.826/435.025
QB50P1 31 Mar 10:15:30 10:17:48 15° 69° (ENE) 10:20:17 145.935-145.965
DUCHIFAT 1 31 Mar 10:16:10 10:18:26 15° 69° (ENE) 10:20:54 145.980
FUNcube-1 31 Mar 10:26:51 10:30:45 31° 96° (E) 10:34:47 145.935
QB50P2 31 Mar 10:30:02 10:33:17 23° 71° (ENE) 10:36:38 145.880/145.840
PHONESAT 2.4 31 Mar 10:32:13 10:35:45 88° 205° (SSW) 10:39:18 2401.200-2431.200
DELFI C3 31 Mar 10:33:55 10:37:58 58° 100° (E) 10:41:59 145.870
AIST 2 31 Mar 10:34:39 10:38:49 61° 117° (ESE) 10:43:04 435.215
UWE-3 31 Mar 10:36:14 10:40:35 52° 99° (E) 10:45:03 435.000/436.395/437.385
CANX-2 31 Mar 10:37:41 10:41:05 22° 289° (WNW) 10:44:22 2200.000
ZACube-1 31 Mar 10:40:17 10:44:32 45° 99° (E) 10:48:53 437.345
ANTELSAT 31 Mar 10:40:32 10:44:43 61° 75° (ENE) 10:49:00 437.575/2403.000
CUBEBUG 2 31 Mar 10:45:30 10:50:00 83° 102° (ESE) 10:54:37 437.445
VELOX 1 31 Mar 10:46:04 10:48:23 14° 92° (E) 10:50:56 145.980
BUGSAT 1 31 Mar 10:46:24 10:49:41 24° 71° (ENE) 10:53:01 437.445
CINEMA 3 31 Mar 10:47:26 10:51:46 49° 285° (WNW) 10:56:17 145.822/145.860
BEESAT 2 31 Mar 10:49:24 10:53:02 29° 306° (NW) 10:56:41 435.950
AISAT 31 Mar 10:51:12 10:54:04 17° 93° (E) 10:57:07 437.250
CUTE 1.7 + AOD 2 31 Mar 10:51:43 10:54:39 17° 290° (WNW) 10:57:25 437.475
POPSAT HIP 1 31 Mar 10:57:28 11:01:30 46° 74° (ENE) 11:05:33 437.405
HO-68 31 Mar 10:59:52 11:06:13 34° 294° (WNW) 11:12:24 435.675
NANOSAT C BR1 31 Mar 11:07:03 11:11:12 62° 76° (ENE) 11:15:22 145.865
AAUSAT CUBESAT 2 31 Mar 11:08:07 11:11:08 19° 290° (WNW) 11:14:00 437.432
POLYITAN 1 31 Mar 11:13:10 11:17:22 76° 76° (ENE) 11:21:35 437.675
VERMONT LUNAR 31 Mar 11:13:18 11:15:34 17° 215° (SW) 11:17:47 437.305
HUMSAT D 31 Mar 11:14:45 11:18:57 55° 100° (E) 11:23:11 437.325/437.525
UKube-1 31 Mar 11:19:15 11:23:35 88° 102° (ESE) 11:27:54 .
SEEDS 31 Mar 11:19:44 11:20:38 10° 293° (WNW) 11:21:16 437.485
BEESAT 3 31 Mar 11:26:26 11:28:06 12° 314° (NW) 11:29:35 437.485
DOVE 4 31 Mar 11:26:38 11:27:22 10° 292° (WNW) 11:27:48 437.250
ESTCUBE 1 31 Mar 11:27:18 11:30:47 22° 94° (E) 11:34:22 437.505/2401.250
DX 1 31 Mar 11:32:20 11:36:37 61° 285° (WNW) 11:40:52 434.975-435.025
50 SAT 31 Mar 11:36:54 11:40:56 66° 101° (E) 11:44:58 437.505
UNISAT 6 31 Mar 11:37:11 11:40:52 27° 265° (W) 11:44:31 437.425
TIGRISAT 31 Mar 11:46:49 11:50:10 22° 266° (W) 11:53:29 435.000
QB50P1 31 Mar 11:49:27 11:53:24 38° 262° (W) 11:57:21 145.935-145.965
Oscar 11 31 Mar 11:49:37 11:52:11 15° 291° (WNW) 11:54:34 145.826/435.025
DUCHIFAT 1 31 Mar 11:50:03 11:54:00 38° 262° (W) 11:57:56 145.980
FUNcube-1 31 Mar 12:03:37 12:06:57 21° 289° (WNW) 12:10:12 145.935
QB50P2 31 Mar 12:05:37 12:09:07 24° 265° (W) 12:12:33 145.880/145.840
PHONESAT 2.4 31 Mar 12:11:29 12:13:47 16° 216° (SW) 12:16:01 2401.200-2431.200
CUBEBUG 1 31 Mar 12:14:35 12:18:54 72° 101° (ESE) 12:23:12 437.445
UWE-3 31 Mar 12:14:36 12:16:47 13° 292° (WNW) 12:18:44 435.000/436.395/437.385
AIST 2 31 Mar 12:15:44 12:17:53 13° 314° (NW) 12:19:52 435.215
SPROUT 31 Mar 12:16:29 12:19:13 17° 93° (E) 12:22:06 437.525
ZACube-1 31 Mar 12:18:05 12:20:35 14° 291° (WNW) 12:22:55 437.345
VELOX 1 31 Mar 12:21:03 12:25:12 41° 287° (WNW) 12:29:19 145.980
BUGSAT 1 31 Mar 12:21:47 12:25:07 22° 265° (W) 12:28:21 437.445
AISAT 31 Mar 12:26:49 12:30:50 34° 287° (WNW) 12:34:47 437.250
YUBILEINY 31 Mar 12:33:21 12:39:24 22° 84° (E) 12:45:54 435.215
POPSAT HIP 1 31 Mar 12:36:06 12:37:42 12° 269° (W) 12:39:03 437.405
HUMSAT D 31 Mar 12:52:54 12:54:19 11° 292° (WNW) 12:55:30 437.325/437.525
ESTCUBE 1 31 Mar 13:03:48 13:07:41 28° 289° (WNW) 13:11:28 437.505/2401.250
O/OREOS (USA 219) 31 Mar 13:09:03 13:12:14 19° 59° (ENE) 13:15:32 437.305
Oscar 19 31 Mar 13:11:52 13:16:37 41° 72° (ENE) 13:21:26 437.125/150
TISAT 1 31 Mar 13:32:44 13:36:55 67° 283° (WNW) 13:41:04 437.305
SWISSCUBE 31 Mar 13:43:50 13:47:31 23° 94° (E) 13:51:18 437.505
Gurwin Techsat 1B 31 Mar 13:45:42 13:49:39 22° 68° (ENE) 13:53:45 435.225
BEESAT 31 Mar 13:46:25 13:50:03 22° 94° (E) 13:53:49 436.000
SPROUT 31 Mar 13:51:34 13:55:26 33° 287° (WNW) 13:59:15 437.525
JUGNU 31 Mar 13:55:06 13:58:43 17° 174° (S) 14:02:23 437.505
ITAMSAT 1 31 Mar 14:21:51 14:27:00 64° 74° (ENE) 14:32:11 435.822/435.867
YUBILEINY 31 Mar 14:26:47 14:35:32 68° 279° (W) 14:44:21 435.215
AIST 1 31 Mar 14:27:58 14:30:05 14° 71° (ENE) 14:32:25
HORYU 2 31 Mar 14:30:32 14:31:17 11° 66° (ENE) 14:32:19 437.375
ITUPSAT 1 31 Mar 14:33:53 14:38:41 73° 101° (E) 14:43:27 437.325
PCSat 31 Mar 14:36:30 14:41:55 84° 296° (WNW) 14:47:23 145.827
AO-7 31 Mar 14:42:56 14:48:54 24° 59° (ENE) 14:55:09 29.400- 29.500
O/OREOS (USA 219) 31 Mar 14:47:40 14:51:48 34° 256° (WSW) 14:55:51 437.305
Oscar 19 31 Mar 14:52:27 14:56:12 19° 267° (W) 14:59:45 437.125/150
KKS-1 31 Mar 14:55:25 14:58:43 21° 94° (E) 15:02:08 437.445
SRMSAT 31 Mar 14:59:01 15:02:12 15° 171° (S) 15:05:27 437.500
SWISSCUBE 31 Mar 15:21:12 15:25:26 31° 289° (WNW) 15:29:34 437.505
STARS 31 Mar 15:21:45 15:25:23 26° 96° (E) 15:29:06 437.465
BEESAT 31 Mar 15:23:43 15:27:59 32° 289° (WNW) 15:32:09 436.000
Gurwin Techsat 1B 31 Mar 15:24:25 15:29:24 40° 262° (W) 15:34:23 435.225
JUGNU 31 Mar 15:43:12 15:47:04 18° 184° (S) 15:50:54 437.505
JAS-2 31 Mar 15:49:22 15:55:50 45° 69° (ENE) 16:03:01 435.910
HORYU 2 31 Mar 16:03:05 16:07:28 63° 259° (W) 16:11:53 437.375
AIST 1 31 Mar 16:04:01 16:08:01 38° 268° (W) 16:11:57
ITAMSAT 1 31 Mar 16:04:35 16:07:01 13° 270° (W) 16:09:07 435.822/435.867
ITUPSAT 1 31 Mar 16:14:55 16:16:02 11° 295° (WNW) 16:16:51 437.325
PCSat 31 Mar 16:24:08 16:26:16 12° 316° (NW) 16:28:07 145.827
KKS-1 31 Mar 16:31:31 16:35:24 30° 289° (WNW) 16:39:14 437.445
AO-7 31 Mar 16:32:45 16:41:02 72° 255° (WSW) 16:49:20 29.400- 29.500
YUBILEINY 31 Mar 16:32:48 16:34:30 10° 302° (WNW) 16:35:21 435.215
SRMSAT 31 Mar 16:46:45 16:50:41 18° 180° (S) 16:54:36 437.500
MOZHAYETS 4 31 Mar 16:47:05 16:50:23 20° 93° (E) 16:53:49
STARS 31 Mar 16:58:12 17:01:47 24° 290° (WNW) 17:05:15 437.465
CUTE-I 31 Mar 17:04:06 17:05:41 12° 64° (ENE) 17:07:35 437.470
Cubesat XI-IV 31 Mar 17:04:46 17:06:35 12° 64° (ENE) 17:08:43 437.490
SO-50 31 Mar 17:27:25 17:30:23 18° 110° (ESE) 17:33:35 436.795
RS-15 31 Mar 17:30:09 17:38:19 27° 105° (ESE) 17:47:00 29.354- 29.394
JUGNU 31 Mar 17:33:09 17:35:22 12° 193° (SSW) 17:37:30 437.505
JAS-2 31 Mar 17:35:00 17:41:04 32° 268° (W) 17:47:31 435.910
BEESAT 3 31 Mar 18:08:36 18:11:09 16° 48° (NE) 18:13:47 437.485
AUBIESAT-1 31 Mar 18:13:08 18:17:45 46° 103° (ESE) 18:22:11 437.475
MOZHAYETS 4 31 Mar 18:23:31 18:27:43 34° 288° (WNW) 18:31:50
PRISM 31 Mar 18:29:41 18:30:54 11° 91° (E) 18:32:24 437.425
AO-7 31 Mar 18:34:23 18:35:24 10° 274° (W) 18:35:30 29.400- 29.500
SRMSAT 31 Mar 18:36:05 18:39:09 14° 190° (S) 18:42:09 437.500
M-CUBED/EXP-1 PRIME 31 Mar 18:39:33 18:44:25 81° 287° (WNW) 18:49:05 437.505
CUTE-I 31 Mar 18:39:48 18:45:09 81° 256° (WSW) 18:50:33 437.470
CUBESAT XI-V 31 Mar 18:40:37 18:44:17 24° 94° (E) 18:48:03 437.345
Cubesat XI-IV 31 Mar 18:40:43 18:46:06 78° 257° (WSW) 18:51:30 437.490
GONETS M04 31 Mar 18:45:45 18:53:20 37° 88° (E) 19:01:10
STRAND 1 31 Mar 18:49:29 18:52:22 16° 91° (E) 18:55:30 437.568
AIST 2 31 Mar 19:00:28 19:03:14 17° 48° (NE) 19:06:05 435.215
SO-50 31 Mar 19:06:13 19:10:36 42° 305° (NW) 19:15:08 436.795
BEESAT 2 31 Mar 19:11:16 19:15:22 62° 59° (ENE) 19:19:23 435.950
HO-68 31 Mar 19:38:19 19:43:32 23° 63° (ENE) 19:49:00 435.675
RS-15 31 Mar 19:38:57 19:49:50 71° 303° (WNW) 20:00:52 29.354- 29.394
BEESAT 3 31 Mar 19:45:34 19:49:27 41° 245° (WSW) 19:53:14 437.485
AUBIESAT-1 31 Mar 19:48:53 19:52:11 18° 297° (WNW) 19:55:16 437.475
CANX-2 31 Mar 19:53:12 19:55:09 13° 68° (ENE) 19:57:19 2200.000
PRISM 31 Mar 20:02:43 20:06:43 46° 286° (WNW) 20:10:40 437.425
CUTE 1.7 + AOD 2 31 Mar 20:05:57 20:08:37 17° 70° (ENE) 20:11:29 437.475
CUBESAT XI-V 31 Mar 20:17:48 20:21:44 27° 289° (WNW) 20:25:34 437.345
AAUSAT CUBESAT 2 31 Mar 20:21:13 20:23:26 15° 69° (ENE) 20:25:51 437.432
